Regional Weather Roundup
Issued by NWS Goodland, KS

Home | Current Version | Previous Version | Text Only | Print | Product List | Glossary Off
Versions: 1 2 3 4 5 6 7 8 9 10 11 12 13 14 15 16 17 18 19 20 21 22 23 24 25 26 27 28 29 30 31 32 33 34 35 36 37 38 39 40 41 42 43 44 45 46 47 48 49 50

000
ASUS43 KGLD 100308
RWRGLD

GOODLAND FORECAST AREA HOURLY WEATHER ROUNDUP
NATIONAL WEATHER SERVICE GOODLAND KS
800 PM MST FRI DEC 09 2016

...OFFICIAL OBSERVATIONS...

CITY           SKY/WX    TMP DP  RH WIND       PRES   REMARKS
GOODLAND KS    CLOUDY    22  18  85 S10       30.19S WCI  11
HILL CITY KS   CLOUDY    19  12  74 E7        30.32S
IMPERIAL NEB   CLOUDY    18  13  80 SE5       30.23F
MCCOOK NEB     CLOUDY    16  10  77 E9        30.28F
AKRON CO       CLOUDY    23  14  68 SE13      30.15R WCI  11
BURLINGTON CO  CLOUDY    21  15  78 SE8       30.17F
LIMON CO       CLOUDY    20  14  77 SE5       30.15S
$$

...UNOFFICIAL OBSERVATIONS...

CITY           SKY/WX    TMP DP  RH WIND       PRES   REMARKS
COLBY KS       MOCLDY    25  21  86 SE7       30.23S
LENORA KS        N/A     18  32 100 MISG        N/A
NORTON KS      CLEAR     18   9  68 E7        30.31S
SHARON SPRINGS   N/A     25  20  82 SE9         N/A
TRENTON NEB      N/A     17  32 100 E8          N/A
KIT CARSON CO    N/A     24  15  67 CALM        N/A
YUMA CO        CLOUDY    21  16  79 N5        30.18S
$$



USA.gov is the U.S. government's official web portal to all federal, state and local government web resources and services.